| time (UTC) | temp F | wind direction | speed MPH | gust MPH | rain 1hr in | rain 24hr in | rain mn in | humidity % | barometer mb |
| 20260504081502 | 57 | 184 | 5.0 | 15.0 | 0.00 | 0.00 | 0.00 | 41 | 998.4 |
| 20260504080106 | 57 | 180 | 8.0 | 18.0 | 0.00 | 0.00 | 0.00 | 41 | 998.7 |
| 20260504044537 | 57 | 181 | 2.0 | 10.0 | 0.00 | 0.00 | 0.00 | 42 | 1002.4 |
| 20260504043033 | 57 | 177 | 3.0 | 10.0 | 0.00 | 0.00 | 0.00 | 42 | 1002.7 |
| 20260504041529 | 57 | 174 | 1.0 | 7.0 | 0.00 | 0.00 | 0.00 | 42 | 1003.1 |
| 20260504040027 | 57 | 174 | 0.0 | 6.0 | 0.00 | 0.00 | 0.00 | 42 | 1003.4 |
| 20260504034524 | 56 | 223 | 1.0 | 4.0 | 0.00 | 0.00 | 0.00 | 42 | 1003.8 |
| 20260504033020 | 57 | 227 | 0.0 | 2.0 | 0.00 | 0.00 | 0.00 | 41 | 1004.0 |
| 20260504031523 | 58 | 227 | 0.0 | 2.0 | 0.00 | 0.00 | 0.00 | 39 | 1004.4 |
| 20260504030016 | 59 | 227 | 0.0 | 1.0 | 0.00 | 0.00 | 0.00 | 37 | 1004.4 |
| 20260504024517 | 60 | 227 | 0.0 | 1.0 | 0.00 | 0.00 | 0.00 | 35 | 1004.6 |
| 20260504023012 | 61 | 227 | 0.0 | 3.0 | 0.00 | 0.00 | 0.00 | 34 | 1004.8 |
| 20260504021510 | 62 | 190 | 1.0 | 9.0 | 0.00 | 0.00 | 0.00 | 32 | 1004.8 |
| 20260504020009 | 62 | 219 | 0.0 | 4.0 | 0.00 | 0.00 | 0.00 | 31 | 1004.8 |
| 20260504014510 | 63 | 223 | 0.0 | 4.0 | 0.00 | 0.00 | 0.00 | 29 | 1004.8 |
| 20260504013007 | 64 | 225 | 0.0 | 7.0 | 0.00 | 0.00 | 0.00 | 28 | 1004.8 |
| 20260504011506 | 65 | 232 | 0.0 | 9.0 | 0.00 | 0.00 | 0.00 | 28 | 1004.9 |
| 20260504010005 | 66 | 215 | 2.0 | 10.0 | 0.00 | 0.00 | 0.00 | 26 | 1004.9 |
| 20260504004505 | 67 | 238 | 4.0 | 12.0 | 0.00 | 0.00 | 0.00 | 26 | 1005.0 |
| 20260504003001 | 67 | 212 | 7.0 | 23.0 | 0.00 | 0.00 | 0.00 | 25 | 1005.1 |
| 20260504001600 | 68 | 225 | 5.0 | 20.0 | 0.00 | 0.00 | 0.00 | 25 | 1005.1 |
| 20260504001501 | 68 | 258 | 8.0 | 20.0 | 0.00 | 0.00 | 0.00 | 25 | 1005.1 |
| 20260504000138 | 68 | 186 | 2.0 | 20.0 | 0.00 | 0.00 | 0.00 | 26 | 1005.3 |
| 20260503234602 | 68 | 220 | 8.0 | 16.0 | 0.00 | 0.00 | 0.00 | 24 | 1005.3 |
| 20260503233054 | 69 | 211 | 8.0 | 15.0 | 0.00 | 0.00 | 0.00 | 23 | 1005.3 |
| 20260503231553 | 70 | 257 | 5.0 | 16.0 | 0.00 | 0.00 | 0.00 | 23 | 1005.5 |
| 20260503230052 | 70 | 249 | 5.0 | 16.0 | 0.00 | 0.00 | 0.00 | 23 | 1005.5 |
| 20260503224550 | 71 | 272 | 2.0 | 23.0 | 0.00 | 0.00 | 0.00 | 23 | 1005.8 |
| 20260503223049 | 70 | 242 | 8.0 | 19.0 | 0.00 | 0.00 | 0.00 | 22 | 1005.7 |
| 20260503221554 | 70 | 193 | 4.0 | 16.0 | 0.00 | 0.00 | 0.00 | 22 | 1005.9 |
| 20260503220047 | 70 | 234 | 1.0 | 16.0 | 0.00 | 0.00 | 0.00 | 23 | 1005.9 |
| 20260503214546 | 71 | 234 | 3.0 | 17.0 | 0.00 | 0.00 | 0.00 | 23 | 1006.2 |
| 20260503213015 | 71 | 326 | 8.0 | 27.0 | 0.00 | 0.00 | 0.00 | 23 | 1006.4 |
| 20260503211516 | 69 | 220 | 5.0 | 18.0 | 0.00 | 0.00 | 0.00 | 24 | 1006.5 |
| 20260503210011 | 69 | 268 | 9.0 | 19.0 | 0.00 | 0.00 | 0.00 | 23 | 1006.8 |
| 20260503204510 | 69 | 5 | 6.0 | 21.0 | 0.00 | 0.00 | 0.00 | 25 | 1006.9 |
| 20260503203018 | 69 | 256 | 5.0 | 19.0 | 0.00 | 0.00 | 0.00 | 22 | 1007.0 |
| 20260503201508 | 69 | 298 | 3.0 | 23.0 | 0.00 | 0.00 | 0.00 | 24 | 1007.0 |
| 20260503200003 | 68 | 355 | 3.0 | 17.0 | 0.00 | 0.00 | 0.00 | 23 | 1007.2 |
| 20260503194502 | 68 | 328 | 6.0 | 20.0 | 0.00 | 0.00 | 0.00 | 25 | 1007.3 |
| 20260503193100 | 68 | 302 | 3.0 | 21.0 | 0.00 | 0.00 | 0.00 | 26 | 1007.3 |
| 20260503191609 | 68 | 215 | 9.0 | 30.0 | 0.00 | 0.00 | 0.00 | 27 | 1007.6 |
| 20260503190158 | 68 | 323 | 7.0 | 26.0 | 0.00 | 0.00 | 0.00 | 27 | 1007.6 |
| 20260503184556 | 68 | 311 | 7.0 | 28.0 | 0.00 | 0.00 | 0.00 | 28 | 1007.7 |
| 20260503183054 | 67 | 286 | 6.0 | 25.0 | 0.00 | 0.00 | 0.00 | 27 | 1007.8 |
| 20260503181602 | 67 | 360 | 7.0 | 17.0 | 0.00 | 0.00 | 0.00 | 32 | 1007.9 |
| 20260503180049 | 67 | 343 | 10.0 | 20.0 | 0.00 | 0.00 | 0.00 | 34 | 1008.0 |
| 20260503174546 | 66 | 355 | 6.0 | 29.0 | 0.00 | 0.00 | 0.00 | 35 | 1007.9 |
| 20260503173055 | 66 | 320 | 6.0 | 21.0 | 0.00 | 0.00 | 0.00 | 34 | 1008.0 |
| 20260503171544 | 66 | 255 | 9.0 | 19.0 | 0.00 | 0.00 | 0.00 | 36 | 1008.2 |
| 20260503130104 | 53 | 342 | 3.0 | 12.0 | 0.00 | 0.00 | 0.00 | 56 | 1007.1 |